Weather History for Gulkana, AK

Change the Weather History Date:

Wednesday, November 30, 2011

  Actual Average Record
Temperature  
Mean Temperature 20 °F -  
Max Temperature 33 °F 9 °F 42 °F (1976)
Min Temperature 7 °F -6 °F -38 °F (2012)
Degree Days  
Heating Degree Days 45    
Moisture  
Dew Point 26 °F    
Average Humidity 90    
Maximum Humidity 100    
Minimum Humidity 82    
Precipitation  
Precipitation 0.28 in - - ()
Snow  
Snow 0.00 in - - ()
Snow Depth 1.00 in    
Sea Level Pressure  
Sea Level Pressure 29.67 in    
Wind  
Wind Speed 11 mph (SE)    
Max Wind Speed 24 mph    
Max Gust Speed 34 mph    
Visibility 6 miles    
Events Snow    
Averages and records for this station are not official NWS values.
T = Trace of Precipitation, MM = Missing Value Source: NWS Daily Summary

Daily Weather History Graph

Daily Weather History Graph

Search for Another Location

Airport:

Trip Planner

Search our weather history database for the weather conditions in past years. The results will help you decide how hot, cold, wet, or windy it might be!

Date:

Astronomy

Nov. 30, 2011 Rise Set
Actual Time 9:34 AM AKST 3:26 PM AKST
Civil Twilight 8:33 AM AKST 4:27 PM AKST
Nautical Twilight 7:33 AM AKST 5:26 PM AKST
Astronomical Twilight 6:39 AM AKST 6:20 PM AKST
Moon 12:50 PM AKST (11/30) 10:47 PM AKST (11/30)
Length of Visible Light 7h 53m
Length of Day
5h 51m
Waxing Crescent, 35% of the Moon is Illuminated
Nov 30
Waxing Crescent
Dec 2
First Quarter
Dec 10
Full
Dec 17
Last Quarter
Dec 24
New

Hourly Weather History & Observations

Time (AKST) Temp. Windchill Dew Point Humidity Pressure Visibility Wind Dir Wind Speed Gust Speed Precip Events Conditions
12:53 AM 7.0 °F 0.1 °F 3.0 °F 84% 29.99 in 10.0 mi North 3.5 mph - N/A   Overcast
1:53 AM 10.0 °F 1.8 °F 6.1 °F 84% 29.97 in 10.0 mi North 4.6 mph - N/A   Overcast
3:53 AM 27.0 °F 14.3 °F 23.0 °F 85% 29.90 in 10.0 mi SSE 17.3 mph 25.3 mph N/A   Overcast
4:53 AM 28.9 °F 14.8 °F 24.1 °F 82% 29.88 in 10.0 mi SSE 24.2 mph 34.5 mph 0.01 in   Partly Cloudy
5:53 AM 30.0 °F 17.5 °F 25.0 °F 82% 29.89 in 10.0 mi SSE 19.6 mph 31.1 mph N/A   Mostly Cloudy
6:53 AM 30.0 °F 18.7 °F 25.0 °F 82% 29.89 in 10.0 mi SSE 16.1 mph - 0.01 in   Mostly Cloudy
7:53 AM 30.0 °F 17.5 °F 25.0 °F 82% 29.87 in 10.0 mi SSE 19.6 mph 25.3 mph 0.01 in   Scattered Clouds
8:53 AM 30.9 °F 19.1 °F 26.1 °F 82% 29.86 in 10.0 mi South 18.4 mph 24.2 mph N/A   Scattered Clouds
9:53 AM 30.0 °F 19.1 °F 27.0 °F 88% 29.84 in 10.0 mi South 15.0 mph 21.9 mph N/A   Mostly Cloudy
10:53 AM 30.9 °F 21.2 °F 28.0 °F 89% 29.83 in 10.0 mi SSE 12.7 mph 21.9 mph 0.01 in   Overcast
11:17 AM 30.2 °F 18.9 °F 28.4 °F 93% 29.70 in 10.0 mi SSE 16.1 mph - N/A   Overcast
11:53 AM 32.0 °F 22.1 °F 28.0 °F 85% 29.82 in 10.0 mi South 13.8 mph - 0.01 in Snow Light Snow
12:53 PM 33.1 °F 22.2 °F 28.9 °F 85% 29.80 in 10.0 mi SSE 17.3 mph 25.3 mph 0.00 in Snow Light Snow
1:53 PM 33.1 °F 22.2 °F 28.9 °F 85% 29.78 in 7.0 mi SSE 17.3 mph 25.3 mph 0.00 in Snow Light Snow
2:53 PM 33.1 °F 21.9 °F 30.0 °F 89% 29.74 in 5.0 mi SSE 18.4 mph 27.6 mph 0.00 in Snow Light Snow
3:53 PM 32.0 °F 20.8 °F 30.0 °F 92% 29.70 in 7.0 mi SSE 17.3 mph 24.2 mph 0.00 in Snow Light Snow
4:53 PM 32.0 °F 21.6 °F 30.0 °F 92% 29.65 in 10.0 mi SSE 15.0 mph - 0.00 in   Overcast
5:53 PM 30.9 °F 21.2 °F 30.0 °F 96% 29.62 in 10.0 mi SSE 12.7 mph - N/A   Overcast
6:53 PM 30.9 °F 25.2 °F 30.0 °F 96% 29.58 in 7.0 mi SE 5.8 mph - 0.00 in Snow Light Snow
7:47 PM 30.2 °F 26.7 °F 28.4 °F 93% 29.48 in 3.0 mi NNE 3.5 mph - 0.01 in Snow Light Snow
7:53 PM 30.9 °F - 28.9 °F 92% 29.55 in 2.0 mi Calm Calm - 0.01 in Snow Light Snow
8:19 PM 30.2 °F 25.4 °F 28.4 °F 93% 29.46 in 1.0 mi ENE 4.6 mph - 0.02 in Snow Light Snow
8:53 PM 30.0 °F 25.2 °F 28.0 °F 92% 29.51 in 1.0 mi ENE 4.6 mph - 0.05 in Snow Light Snow
9:21 PM 30.2 °F 25.4 °F 28.4 °F 93% 29.41 in 1.0 mi ENE 4.6 mph - 0.02 in Snow Light Snow
9:53 PM 30.0 °F 26.5 °F 28.9 °F 96% 29.48 in 1.2 mi NE 3.5 mph - 0.04 in Snow Light Snow
10:42 PM 30.2 °F - 28.4 °F 93% 29.37 in 0.8 mi Calm Calm - 0.04 in Snow Light Snow
10:50 PM 30.2 °F - 28.4 °F 93% 29.37 in 0.8 mi Calm Calm - 0.05 in Snow Light Snow
10:53 PM 30.0 °F - 28.9 °F 96% 29.44 in 0.8 mi Calm Calm - 0.06 in Snow Light Snow
11:39 PM 30.2 °F - 28.4 °F 93% 29.36 in 1.0 mi Calm Calm - 0.05 in Snow Light Snow
11:53 PM 28.9 °F 22.8 °F 28.9 °F 100% 29.43 in 1.0 mi WSW 5.8 mph - 0.07 in Snow Light Snow